Location: Blue Mountain Vista Observatory
(40.6992°N, 75.9422°W)
Time: 13:17:13
(UTC-05:00)

IDEFIX/ARIANE 42P - Visible Passes

Search period start: 22 January 2017 00:00
Search period end: 01 February 2017 00:00
Orbit: 786 x 802 km, 98.2° (Epoch: 21 January)

Date Brightness Start Highest point End Pass type
(mag) Time Alt. Az. Time Alt. Az. Time Alt. Az.
22 Jan 5.0 05:18:24 10° NE 05:22:32 23° E 05:26:38 10° SE visible
22 Jan 4.6 18:16:04 10° SSW 18:20:38 31° W 18:25:16 10° NW visible
23 Jan 5.8 04:51:51 10° ENE 04:53:54 12° E 04:55:57 10° ESE visible
23 Jan 2.6 06:28:47 10° N 06:34:05 79° WNW 06:39:20 10° SSW visible
23 Jan 3.4 17:47:04 10° S 17:52:10 57° W 17:57:22 10° NNW visible
24 Jan 3.3 06:00:32 10° NNE 06:05:45 58° E 06:10:55 10° S visible
24 Jan 5.9 19:02:09 10° WSW 19:04:03 12° W 19:05:57 10° WNW visible
25 Jan 4.5 05:32:37 10° NNE 05:37:18 31° E 05:41:56 10° SSE visible
25 Jan 5.2 18:31:22 10° SW 18:35:24 22° W 18:39:28 10° NW visible
26 Jan 5.4 05:05:18 10° NE 05:08:44 17° E 05:12:09 10° SE visible
26 Jan 2.7 06:43:31 10° N 06:48:42 57° WNW 06:53:50 10° SSW visible
26 Jan 4.1 18:02:00 10° SSW 18:06:54 41° W 18:11:51 10° NNW visible
27 Jan 2.8 06:15:07 10° NNE 06:20:26 80° ESE 06:25:41 10° S visible
27 Jan 2.9 17:33:17 10° S 17:38:30 76° WSW 17:43:46 10° NNW visible
28 Jan 3.9 05:47:01 10° NNE 05:52:03 43° E 05:57:01 10° S visible
28 Jan 5.7 18:47:01 10° SW 18:50:13 16° W 18:53:26 10° NW visible
29 Jan 5.0 05:19:19 10° NE 05:23:33 24° E 05:27:44 10° SSE visible
29 Jan 4.8 18:17:06 10° SSW 18:21:38 30° W 18:26:13 10° NW visible
30 Jan 5.8 04:52:37 10° ENE 04:54:55 13° E 04:57:14 10° ESE visible
30 Jan 2.6 06:29:47 10° N 06:35:04 75° WNW 06:40:18 10° SSW visible
30 Jan 3.5 17:48:04 10° S 17:53:10 54° W 17:58:21 10° NNW visible
31 Jan 3.2 06:01:31 10° NNE 06:06:45 60° E 06:11:56 10° S visible
31 Jan 6.0 19:03:28 10° WSW 19:05:03 11° W 19:06:40 10° WNW visible
